User: anonymous   Login
Location: �perlecques
(50.8057°N, 2.1521°E)
Time: 17:26:09
(UTC+00:00)
Language:

STARLINK-1230 - Orbit

View from above orbital plane
View from above orbital plane
View from above satellite
View from above satellite

Ground track
Ground track

The orbit data is extracted from the following two-line orbital elements,

1 45189U 20012M   20196.25001157  .00041452  00000-0  28490-2 0  9992
2 45189  52.9981 314.2472 0001370 114.9692 255.7822 15.05559276 22751
Epoch (UTC): 14 July 2020 06:00:01
Eccentricity: 0.0001370
inclination: 52.9981°
perigee height: 549 km
apogee height: 551 km
right ascension of ascending node: 314.2472°
argument of perigee: 114.9692°
revolutions per day: 15.05559276
mean anomaly at epoch: 255.7822°
orbit number at epoch: 2275

The dashed part of the orbit path shows where the satellite is in the earth's shadow,  

DLR